TimeCST,TemperatureF,Dew PointF,Humidity,Sea Level PressureIn,VisibilityMPH,Wind Direction,Wind SpeedMPH,Gust SpeedMPH,PrecipitationIn,Events,Conditions,WindDirDegrees,DateUTC
12:15 AM,20.7,12.9,72,30.49,10.0,NE,6.9,-,N/A,,Clear,40,2013-12-08 06:15:00
12:35 AM,20.5,13.1,73,30.49,10.0,NE,5.8,-,N/A,,Mostly Cloudy,40,2013-12-08 06:35:00
12:55 AM,20.8,14.0,75,30.47,10.0,ENE,5.8,-,N/A,,Overcast,70,2013-12-08 06:55:00
1:15 AM,21.0,14.5,76,30.46,10.0,East,5.8,-,N/A,,Overcast,80,2013-12-08 07:15:00
1:35 AM,21.2,14.9,77,30.46,10.0,ENE,5.8,-,N/A,,Overcast,60,2013-12-08 07:35:00
1:55 AM,21.2,14.9,77,30.45,10.0,ENE,4.6,-,N/A,,Scattered Clouds,60,2013-12-08 07:55:00
2:15 AM,21.6,15.1,76,30.47,10.0,Calm,Calm,-,N/A,,Mostly Cloudy,0,2013-12-08 08:15:00
2:35 AM,21.7,15.3,76,30.45,10.0,ENE,4.6,-,N/A,,Overcast,60,2013-12-08 08:35:00
2:55 AM,21.7,15.6,77,30.44,10.0,NE,4.6,-,N/A,,Overcast,50,2013-12-08 08:55:00
3:15 AM,22.1,16.0,77,30.42,10.0,ENE,6.9,-,N/A,,Overcast,70,2013-12-08 09:15:00
3:35 AM,22.1,15.8,77,30.40,10.0,NE,10.4,-,N/A,,Overcast,40,2013-12-08 09:35:00
3:55 AM,22.5,16.2,77,30.41,10.0,East,10.4,-,N/A,,Overcast,80,2013-12-08 09:55:00
4:15 AM,22.5,16.5,78,30.39,10.0,East,10.4,-,N/A,,Overcast,80,2013-12-08 10:15:00
4:35 AM,22.5,16.7,79,30.39,4.0,East,9.2,-,N/A,Snow,Light Snow,80,2013-12-08 10:35:00
4:55 AM,22.1,16.9,80,30.38,7.0,East,9.2,-,N/A,Snow,Light Snow,80,2013-12-08 10:55:00
5:15 AM,21.7,18.1,86,30.38,2.5,ENE,8.1,-,N/A,Snow,Light Snow,60,2013-12-08 11:15:00
5:35 AM,21.6,18.5,88,30.35,1.5,East,10.4,-,N/A,Snow,Light Snow,80,2013-12-08 11:35:00
5:55 AM,21.2,18.7,90,30.34,1.2,East,9.2,-,N/A,Snow,Light Snow,80,2013-12-08 11:55:00
6:15 AM,21.2,18.9,91,30.33,2.5,ENE,9.2,-,N/A,Snow,Light Snow,60,2013-12-08 12:15:00
6:35 AM,21.6,19.0,90,30.32,10.0,NE,10.4,-,N/A,Snow,Light Snow,50,2013-12-08 12:35:00
6:55 AM,21.6,18.9,89,30.31,10.0,ENE,11.5,17.3,N/A,,Overcast,70,2013-12-08 12:55:00
7:15 AM,21.7,19.0,89,30.30,10.0,ENE,12.7,-,N/A,Snow,Light Snow,60,2013-12-08 13:15:00
7:35 AM,22.1,19.2,89,30.29,10.0,ENE,9.2,-,N/A,Snow,Light Snow,60,2013-12-08 13:35:00
7:55 AM,22.1,19.0,88,30.29,10.0,NE,10.4,17.3,N/A,,Overcast,50,2013-12-08 13:55:00
8:15 AM,22.6,19.2,87,30.29,10.0,ENE,8.1,-,N/A,,Overcast,70,2013-12-08 14:15:00
8:35 AM,23.0,19.4,86,30.28,10.0,ENE,9.2,-,N/A,,Overcast,70,2013-12-08 14:35:00
8:55 AM,23.5,19.4,84,30.28,10.0,ENE,10.4,-,N/A,,Overcast,60,2013-12-08 14:55:00
9:15 AM,23.9,19.6,84,30.27,10.0,East,10.4,-,N/A,,Overcast,80,2013-12-08 15:15:00
9:35 AM,24.1,19.2,82,30.27,10.0,ENE,10.4,-,N/A,,Overcast,70,2013-12-08 15:35:00
9:55 AM,25.0,19.9,81,30.26,10.0,East,10.4,-,N/A,,Overcast,90,2013-12-08 15:55:00
10:15 AM,25.5,19.8,79,30.26,10.0,East,9.2,-,N/A,,Overcast,100,2013-12-08 16:15:00
10:35 AM,26.1,19.9,78,30.24,10.0,East,10.4,16.1,N/A,,Overcast,100,2013-12-08 16:35:00
10:55 AM,26.2,19.8,76,30.23,10.0,East,8.1,-,N/A,,Overcast,100,2013-12-08 16:55:00
11:15 AM,26.6,19.9,76,30.22,10.0,East,9.2,-,N/A,,Overcast,100,2013-12-08 17:15:00
11:35 AM,27.1,20.3,75,30.19,10.0,East,9.2,-,N/A,,Overcast,100,2013-12-08 17:35:00
11:55 AM,27.1,20.8,77,30.18,10.0,East,10.4,-,N/A,,Overcast,100,2013-12-08 17:55:00
12:15 PM,27.3,21.4,78,30.17,10.0,East,12.7,-,N/A,,Overcast,90,2013-12-08 18:15:00
12:35 PM,27.3,21.7,80,30.15,10.0,East,9.2,-,N/A,,Overcast,100,2013-12-08 18:35:00
12:55 PM,27.1,21.7,80,30.13,10.0,East,8.1,-,N/A,,Overcast,100,2013-12-08 18:55:00
1:15 PM,27.3,22.3,81,30.12,10.0,East,10.4,-,N/A,,Overcast,100,2013-12-08 19:15:00
1:35 PM,27.3,22.8,83,30.10,4.0,East,9.2,-,N/A,Snow,Light Snow,100,2013-12-08 19:35:00
1:55 PM,27.5,23.4,84,30.08,5.0,East,8.1,-,N/A,,Overcast,100,2013-12-08 19:55:00
2:15 PM,27.3,23.0,84,30.08,5.0,East,6.9,-,N/A,,Overcast,100,2013-12-08 20:15:00
2:35 PM,27.1,23.2,85,30.07,5.0,ESE,8.1,-,N/A,Snow,Light Snow,120,2013-12-08 20:35:00
2:55 PM,27.1,23.5,86,30.06,5.0,ESE,4.6,-,N/A,,Overcast,110,2013-12-08 20:55:00
3:15 PM,27.1,23.7,87,30.05,5.0,East,8.1,-,N/A,Snow,Light Snow,100,2013-12-08 21:15:00
3:35 PM,27.1,23.9,88,30.05,5.0,ESE,6.9,-,N/A,,Overcast,110,2013-12-08 21:35:00
3:55 PM,27.0,23.9,88,30.05,7.0,ESE,6.9,-,N/A,,Overcast,110,2013-12-08 21:55:00
4:15 PM,26.6,24.6,92,30.04,2.5,ESE,5.8,-,N/A,,Overcast,120,2013-12-08 22:15:00
4:35 PM,26.8,25.5,95,30.03,1.8,ESE,6.9,-,N/A,,Overcast,120,2013-12-08 22:35:00
4:55 PM,27.1,26.1,96,30.04,1.8,SE,4.6,-,N/A,,Overcast,130,2013-12-08 22:55:00
5:15 PM,27.3,26.4,96,30.03,1.8,SE,4.6,-,N/A,,Overcast,140,2013-12-08 23:15:00
5:35 PM,27.5,26.6,96,30.02,1.8,ESE,4.6,-,N/A,,Overcast,120,2013-12-08 23:35:00
5:55 PM,27.5,27.0,98,30.02,2.0,SE,4.6,-,N/A,,Overcast,130,2013-12-08 23:55:00
6:15 PM,27.9,27.1,97,30.03,2.5,SSE,9.2,-,N/A,,Overcast,160,2013-12-09 00:15:00
6:35 PM,28.0,27.5,98,30.02,1.5,SSE,10.4,-,N/A,,Overcast,150,2013-12-09 00:35:00
6:55 PM,28.2,27.5,97,30.02,1.5,SSE,10.4,-,N/A,,Overcast,160,2013-12-09 00:55:00
7:15 PM,28.2,27.5,97,30.04,2.0,South,8.1,-,N/A,,Overcast,180,2013-12-09 01:15:00
7:35 PM,28.2,27.5,97,30.04,3.0,South,8.1,-,N/A,,Overcast,180,2013-12-09 01:35:00
7:55 PM,28.4,28.0,99,30.03,4.0,South,8.1,-,N/A,,Overcast,170,2013-12-09 01:55:00
8:15 PM,28.9,28.2,97,30.02,4.0,South,6.9,-,N/A,,Overcast,190,2013-12-09 02:15:00
8:35 PM,28.9,28.2,97,30.02,5.0,SSW,9.2,-,N/A,,Overcast,200,2013-12-09 02:35:00
8:55 PM,28.9,28.0,96,30.02,5.0,SSW,9.2,-,N/A,,Overcast,210,2013-12-09 02:55:00
9:15 PM,28.8,27.5,95,30.01,7.0,SSW,8.1,-,N/A,,Overcast,210,2013-12-09 03:15:00
9:35 PM,28.4,27.3,96,30.01,10.0,SW,11.5,-,N/A,,Overcast,220,2013-12-09 03:35:00
9:55 PM,28.4,27.1,95,30.02,7.0,SW,11.5,-,N/A,,Overcast,230,2013-12-09 03:55:00
10:15 PM,28.2,27.0,95,30.02,7.0,WSW,9.2,-,N/A,,Overcast,240,2013-12-09 04:15:00
10:35 PM,28.2,26.6,94,30.02,10.0,WSW,8.1,-,N/A,,Overcast,240,2013-12-09 04:35:00
10:55 PM,27.9,26.2,94,30.02,7.0,WSW,12.7,-,N/A,,Overcast,250,2013-12-09 04:55:00
11:15 PM,27.5,25.9,94,30.03,4.0,WSW,12.7,-,N/A,,Overcast,250,2013-12-09 05:15:00
11:35 PM,27.3,25.7,94,30.03,7.0,WSW,15.0,19.6,N/A,,Overcast,250,2013-12-09 05:35:00
11:55 PM,27.1,26.1,96,30.03,5.0,WSW,12.7,-,N/A,,Overcast,250,2013-12-09 05:55:00